Location: Canet
(43.3261°N, 5.3723°E)
Time: 17:52:08
(UTC+00:00)

CZ-2D R/B - Pass Details

Date: 24 January 2021
Orbit: 521 x 537 km, 97.4° (Epoch: 08 March)

Event Time Altitude Azimuth Distance (km) Brightness Sun altitude
Rises 17:41:18 0° 161° (SSE) 2,668 6.8 -11.3°
Reaches altitude 10° 17:43:24 10° 158° (SSE) 1,780 5.9 -11.6°
Maximum altitude 17:47:13 69° 76° (ENE) 573 3.1 -12.3°
Drops below altitude 10° 17:51:03 10° 353° (N) 1,785 5.9 -13.0°
Sets 17:53:10 0° 351° (N) 2,677 6.8 -13.4°
